Notices

What's New in latest Release from April 7th, 2021:

- Updated Glossary, including Speed of Maximum Gust, and Total Hourly Precipitation

- Updated national and regional climate services offices contacts and prices information

- Addition of station inventory lists for 1981-2010, 1971-2000, and 1961-1990 Normals.

If you haven't already, please take our survey and provide feedback about our website: https://eccc.sondage-survey.ca/f/LanguageSelection.aspx?s=442ca660-fcf1-47c0-95a9-59707d6fd709

Hourly Data Report for October 05, 2019

QUALICUM BEACH AIRPORT
BRITISH COLUMBIA
Current Station Operator: ECCC - MSC

49°20'14.000" N
124°23'38.000" W
58.20 m
1026562
71766
VOQ

Download Data

Hourly Data (October 2019)
Hourly Data Report for October 5, 2019
TIME
LST
Temp Definition
°C
Dew Point Definition
°C
Rel Hum Definition
%
Precip. Amount Definition
mm

Wind Dir Definition
10's deg

Wind Spd Definition
km/h
Visibility Definition
km
Stn Press Definition
kPa
Hmdx Definition


Wind Chill Definition


Weather Definition


00:00 7.9 7.5 97 0.0 0 1   101.74     LegendNANA
01:00 7.6 7.2 97 0.0 29 3   101.77     LegendNANA
02:00 8.1 7.8 98 0.0 25 4   101.83     LegendNANA
03:00 7.5 7.1 97 0.2   0   101.82     LegendNANA
04:00 7.1 6.8 97 0.0   0   101.86     LegendNANA
05:00 7.2 6.9 98 0.0   0   101.90     LegendNANA
06:00 6.7 6.3 98 0.0 24 1   101.95     LegendNANA
07:00 6.2 5.9 98 0.0 0 1   102.00     LegendNANA
08:00 8.8 8.4 98 0.0 27 2   102.06     LegendNANA
09:00 10.3 9.5 95 0.0 27 3   102.13     LegendNANA
10:00 12.0 9.1 82 0.0 32 5   102.18     LegendNANA
11:00 13.1 8.7 74 0.0 26 1   102.21     LegendNANA
12:00 13.3 7.7 69 0.0 2 6   102.20     LegendNANA
13:00 14.2 9.4 73 0.0 35 5   102.18     LegendNANA
14:00 14.2 8.5 68 0.0 2 7   102.18     LegendNANA
15:00 14.3 8.3 67 0.0 2 5   102.17     LegendNANA
16:00 15.2 6.5 56 0.0 32 5   102.16     LegendNANA
17:00 14.8 7.1 60 0.0 29 2   102.14     LegendNANA
18:00 10.0 7.0 82 0.0 18 2   102.15     LegendNANA
19:00 8.8 7.1 89 0.0 19 2   102.18     LegendNANA
20:00 7.4 6.3 92 0.0   0   102.22     LegendNANA
21:00 7.3 6.2 93 0.0 26 2   102.25     LegendNANA
22:00 6.7 5.9 95 0.0 26 2   102.27     LegendNANA
23:00 6.2 5.4 95 0.0 24 1   102.28     LegendNANA

Notes on Data Quality.

Legend

  • E = Estimated
  • M = Missing
  • NA = Not Available*
  • [empty] = Indicates an unobserved value
Date modified: